sat.trackr.live / text

‹ back to catalog

STARLINK-1666

NORAD 46357 · 2020-062AJ

PAYLOAD ACTIVE UNKNOWN

§ Identity

Operator
Country
US
Launch date
2020-09-03
Launch site
AFETR
Launch vehicle
Mass (kg)
RCS (m²)

Purposes: comms

External: N2YO · Heavens-Above · Gunter

§ Orbital elements

Epoch: 2026-05-25T03:22:01.060320Z

Period
91.36 min
Inclination
53.0372°
Eccentricity
0.0001315
Mean motion
15.76199744 rev/d
Perigee alt
340.3 km
Apogee alt
342.1 km
Semi-major
6,719.4 km
B*
9.2481e-4
RAAN
317.8299°
Arg perigee
233.2315°
Mean anomaly
126.8583°
Rev number
31,689

§ Raw data

STARLINK-16661 46357U 20062AJ  26145.14029005  .00149871  00000+0  92481-3 0  99902 46357  53.0372 317.8299 0001315 233.2315 126.8583 15.76199744316898

JSON: /api/v1/satellites/46357 · /tle

For live sub-satellite position, see the globe view (requires WebGL).

§ Visibility from observer

Set your observer location to see the next 7 days of passes ≥ 10°. The values pass through the URL so the page stays shareable.

No JS? Fill the form by hand. The geolocation button needs JavaScript.